When you browse on this site, cookies collect data to enhance your experience and personalize the content and advertising you see.
Visit our Privacy Policy to learn more. By continuing to use the site, you agree to this use of cookies and data.

Hourly Weather Denpasar

Today, 24 September, Thursday

Time Temperature Precipitation Wind Pressure Humidity
00:00 +25°C° 0 mm 1 mps 755 mmHg 75%
01:00 +25°C° 0 mm 1 mps 755 mmHg 77%
02:00 +25°C° 0 mm 1 mps 755 mmHg 79%
03:00 +25°C° 0 mm 1 mps 755 mmHg 83%
04:00 +25°C° 0 mm 1 mps 755 mmHg 87%
05:00 +25°C° 0 mm 1 mps 755 mmHg 91%
06:00 +26°C° 0 mm 1 mps 756 mmHg 86%
07:00 +27°C° 0 mm 1 mps 756 mmHg 82%
08:00 +26°C° 0 mm 0 mps 757 mmHg 78%
09:00 +29°C° 0 mm 1 mps 757 mmHg 73%
10:00 +30°C° 0 mm 2 mps 757 mmHg 68%
11:00 +32°C° 0 mm 2 mps 756 mmHg 63%
12:00 +33°C° 0 mm 3 mps 756 mmHg 62%
13:00 +34°C° 0 mm 3 mps 755 mmHg 60%
14:00 +34°C° 0 mm 3 mps 755 mmHg 58%
15:00 +33°C° 0 mm 3 mps 754 mmHg 62%
16:00 +31°C° 0 mm 2 mps 754 mmHg 66%
17:00 +30°C° 0 mm 2 mps 754 mmHg 70%
18:00 +29°C° 0 mm 2 mps 755 mmHg 78%
19:00 +28°C° 0 mm 2 mps 755 mmHg 86%
20:00 +26°C° 0 mm 2 mps 756 mmHg 94%
21:00 +26°C° 0.1 mm 2 mps 756 mmHg 94%
22:00 +26°C° 0.1 mm 2 mps 756 mmHg 94%
23:00 +26°C° 0.1 mm 2 mps 756 mmHg 94%

Tomorrow, 25 September, Friday

Time Temperature Precipitation Wind Pressure Humidity
00:00 +26°C° 0.1 mm 2 mps 756 mmHg 94%
01:00 +26°C° 0.1 mm 2 mps 756 mmHg 94%
02:00 +26°C° 0.1 mm 2 mps 755 mmHg 94%
03:00 +26°C° 0.1 mm 2 mps 755 mmHg 94%
04:00 +26°C° 0.1 mm 2 mps 755 mmHg 94%
05:00 +26°C° 0.1 mm 2 mps 755 mmHg 94%
06:00 +27°C° 0.2 mm 2 mps 755 mmHg 90%
07:00 +28°C° 0.2 mm 2 mps 756 mmHg 86%
08:00 +29°C° 0.2 mm 2 mps 756 mmHg 82%
09:00 +31°C° 0 mm 2 mps 756 mmHg 73%
10:00 +32°C° 0 mm 2 mps 756 mmHg 63%
11:00 +35°C° 0 mm 3 mps 756 mmHg 54%
12:00 +35°C° 0 mm 3 mps 755 mmHg 54%
13:00 +35°C° 0 mm 4 mps 754 mmHg 54%
14:00 +35°C° 0 mm 4 mps 754 mmHg 54%
15:00 +34°C° 0.1 mm 4 mps 753 mmHg 60%
16:00 +33°C° 0.1 mm 4 mps 753 mmHg 65%
17:00 +30°C° 0.1 mm 3 mps 753 mmHg 70%
18:00 +29°C° 0 mm 3 mps 754 mmHg 77%
19:00 +28°C° 0 mm 2 mps 754 mmHg 85%
20:00 +26°C° 0 mm 2 mps 755 mmHg 93%
21:00 +26°C° 0 mm 2 mps 755 mmHg 92%
22:00 +26°C° 0 mm 2 mps 756 mmHg 91%
23:00 +26°C° 0 mm 2 mps 756 mmHg 91%

Day after tomorrow, 26 September, Saturday

Time Temperature Precipitation Wind Pressure Humidity
00:00 +26°C° 0 mm 1 mps 756 mmHg 90%
01:00 +26°C° 0 mm 1 mps 755 mmHg 89%
02:00 +26°C° 0 mm 1 mps 755 mmHg 88%
03:00 +26°C° 0 mm 1 mps 755 mmHg 88%
04:00 +26°C° 0 mm 1 mps 755 mmHg 87%
05:00 +25°C° 0 mm 1 mps 755 mmHg 86%
06:00 +27°C° 0 mm 1 mps 755 mmHg 81%
07:00 +28°C° 0 mm 1 mps 755 mmHg 76%
08:00 +30°C° 0 mm 1 mps 756 mmHg 71%
09:00 +31°C° 0 mm 1 mps 756 mmHg 66%
10:00 +32°C° 0 mm 2 mps 756 mmHg 62%
11:00 +34°C° 0 mm 3 mps 756 mmHg 58%
12:00 +34°C° 0 mm 3 mps 755 mmHg 58%
13:00 +34°C° 0 mm 4 mps 754 mmHg 59%
14:00 +34°C° 0 mm 4 mps 754 mmHg 60%
15:00 +33°C° 0 mm 4 mps 753 mmHg 64%
16:00 +32°C° 0 mm 4 mps 753 mmHg 67%
17:00 +30°C° 0 mm 3 mps 753 mmHg 71%
18:00 +29°C° 0 mm 3 mps 754 mmHg 78%
19:00 +28°C° 0 mm 3 mps 754 mmHg 85%
20:00 +26°C° 0 mm 3 mps 755 mmHg 92%
21:00 +26°C° 0.1 mm 2 mps 755 mmHg 92%
22:00 +26°C° 0.1 mm 2 mps 756 mmHg 92%
23:00 +26°C° 0.1 mm 2 mps 756 mmHg 92%

27 September, Sunday

Time Temperature Precipitation Wind Pressure Humidity
00:00 +26°C° 0 mm 2 mps 756 mmHg 92%
01:00 +26°C° 0 mm 2 mps 755 mmHg 92%
02:00 +25°C° 0 mm 2 mps 755 mmHg 92%
03:00 +26°C° 0 mm 2 mps 755 mmHg 92%
04:00 +26°C° 0 mm 2 mps 755 mmHg 92%
05:00 +26°C° 0 mm 2 mps 755 mmHg 91%
06:00 +27°C° 0 mm 2 mps 755 mmHg 87%
07:00 +28°C° 0 mm 2 mps 756 mmHg 82%
08:00 +29°C° 0 mm 2 mps 756 mmHg 78%
09:00 +30°C° 0 mm 3 mps 756 mmHg 71%
10:00 +33°C° 0 mm 3 mps 756 mmHg 64%
11:00 +34°C° 0 mm 3 mps 756 mmHg 57%
12:00 +34°C° 0 mm 4 mps 756 mmHg 57%
13:00 +34°C° 0 mm 4 mps 755 mmHg 57%
14:00 +34°C° 0 mm 4 mps 754 mmHg 58%
15:00 +33°C° 0 mm 4 mps 754 mmHg 62%
16:00 +32°C° 0 mm 4 mps 754 mmHg 66%
17:00 +30°C° 0 mm 3 mps 754 mmHg 70%
18:00 +29°C° 0.1 mm 3 mps 754 mmHg 78%
19:00 +27°C° 0.1 mm 3 mps 755 mmHg 85%
20:00 +26°C° 0.1 mm 3 mps 756 mmHg 93%
21:00 +26°C° 0.8 mm 3 mps 756 mmHg 94%
22:00 +26°C° 0.8 mm 3 mps 757 mmHg 94%
23:00 +26°C° 0.8 mm 3 mps 757 mmHg 94%

28 September, Monday

Time Temperature Precipitation Wind Pressure Humidity
00:00 +26°C° 0.7 mm 3 mps 756 mmHg 94%
01:00 +26°C° 0.7 mm 3 mps 756 mmHg 95%
02:00 +25°C° 0.7 mm 3 mps 756 mmHg 95%
03:00 +26°C° 0.6 mm 3 mps 755 mmHg 95%
04:00 +26°C° 0.6 mm 3 mps 755 mmHg 94%
05:00 +26°C° 0.6 mm 3 mps 755 mmHg 94%
06:00 +26°C° 0.3 mm 3 mps 756 mmHg 92%
07:00 +27°C° 0.3 mm 3 mps 756 mmHg 89%
08:00 +28°C° 0.3 mm 3 mps 757 mmHg 87%
09:00 +29°C° 0 mm 4 mps 757 mmHg 78%
10:00 +32°C° 0 mm 4 mps 757 mmHg 69%
11:00 +34°C° 0 mm 4 mps 756 mmHg 60%
12:00 +34°C° 0 mm 4 mps 756 mmHg 59%
13:00 +34°C° 0 mm 4 mps 755 mmHg 57%
14:00 +34°C° 0 mm 4 mps 754 mmHg 56%
15:00 +33°C° 0 mm 4 mps 754 mmHg 60%
16:00 +32°C° 0 mm 4 mps 754 mmHg 65%
17:00 +30°C° 0 mm 4 mps 754 mmHg 69%
18:00 +29°C° 0.1 mm 4 mps 754 mmHg 77%
19:00 +28°C° 0.1 mm 4 mps 755 mmHg 85%
20:00 +26°C° 0.1 mm 3 mps 756 mmHg 92%
21:00 +26°C° 0.6 mm 4 mps 756 mmHg 93%
22:00 +26°C° 0.6 mm 4 mps 756 mmHg 94%
23:00 +26°C° 0.6 mm 4 mps 756 mmHg 95%

29 September, Tuesday

Time Temperature Precipitation Wind Pressure Humidity
00:00 +26°C° 0.8 mm 4 mps 756 mmHg 95%
01:00 +25°C° 0.8 mm 4 mps 755 mmHg 95%
02:00 +25°C° 0.8 mm 4 mps 755 mmHg 95%
03:00 +25°C° 0.7 mm 4 mps 755 mmHg 94%
04:00 +25°C° 0.7 mm 4 mps 754 mmHg 94%
05:00 +25°C° 0.7 mm 4 mps 754 mmHg 93%
06:00 +26°C° 0.4 mm 4 mps 755 mmHg 90%
07:00 +27°C° 0.4 mm 4 mps 755 mmHg 88%
08:00 +28°C° 0.4 mm 4 mps 756 mmHg 85%
09:00 +29°C° 0.6 mm 4 mps 755 mmHg 79%
10:00 +30°C° 0.6 mm 4 mps 755 mmHg 72%
11:00 +32°C° 0.6 mm 4 mps 755 mmHg 66%
12:00 +32°C° 0.6 mm 5 mps 755 mmHg 68%
13:00 +32°C° 0.6 mm 5 mps 754 mmHg 71%
14:00 +32°C° 0.6 mm 5 mps 753 mmHg 73%
15:00 +30°C° 0.7 mm 5 mps 753 mmHg 78%
16:00 +29°C° 0.7 mm 4 mps 753 mmHg 83%
17:00 +28°C° 0.7 mm 4 mps 753 mmHg 87%
18:00 +27°C° 0.9 mm 4 mps 753 mmHg 90%
19:00 +26°C° 0.9 mm 4 mps 754 mmHg 92%
20:00 +25°C° 0.9 mm 4 mps 754 mmHg 95%
21:00 +26°C° 0.6 mm 4 mps 755 mmHg 94%
22:00 +26°C° 0.6 mm 4 mps 755 mmHg 94%
23:00 +26°C° 0.6 mm 4 mps 755 mmHg 94%
Show more